owner,sensor,date,latitude,longitude,vertical_datum,wind_speed,wind_to_direction,wind_speed_of_gust,qcFlag 
ADCP,ioos:station:wmo:42361:1,2011-07-01T00:30:00Z,27.5500,-92.4900,122.0,6.9,-9999.0,99.0,'11111222,99999999,11144222' 
ADCP,ioos:station:wmo:42361:1,2011-07-01T01:30:00Z,27.5500,-92.4900,122.0,7.0,-9999.0,99.0,'11111222,99999999,11144222' 
ADCP,ioos:station:wmo:42361:1,2011-07-01T02:30:00Z,27.5500,-92.4900,122.0,6.8,-9999.0,99.0,'11111222,99999999,11144222' 
ADCP,ioos:station:wmo:42361:1,2011-07-01T03:30:00Z,27.5500,-92.4900,122.0,6.7,-9999.0,99.0,'11111222,99999999,11144222' 
ADCP,ioos:station:wmo:42361:1,2011-07-01T04:30:00Z,27.5500,-92.4900,122.0,6.7,-9999.0,99.0,'11111222,99999999,11144222' 
ADCP,ioos:station:wmo:42361:1,2011-07-01T05:30:00Z,27.5500,-92.4900,122.0,6.9,-9999.0,99.0,'11111222,99999999,11144222' 
ADCP,ioos:station:wmo:42361:1,2011-07-01T06:30:00Z,27.5500,-92.4900,122.0,6.7,-9999.0,99.0,'11111222,99999999,11144222' 
ADCP,ioos:station:wmo:42361:1,2011-07-01T07:30:00Z,27.5500,-92.4900,122.0,6.0,-9999.0,99.0,'11111222,99999999,11144222' 
ADCP,ioos:station:wmo:42361:1,2011-07-01T08:30:00Z,27.5500,-92.4900,122.0,5.5,-9999.0,99.0,'11111222,99999999,11144222' 
ADCP,ioos:station:wmo:42361:1,2011-07-01T09:30:00Z,27.5500,-92.4900,122.0,5.0,-9999.0,99.0,'11111222,99999999,11144222' 
ADCP,ioos:station:wmo:42361:1,2011-07-01T10:30:00Z,27.5500,-92.4900,122.0,4.8,-9999.0,99.0,'11111222,99999999,11144222' 
ADCP,ioos:station:wmo:42361:1,2011-07-01T11:30:00Z,27.5500,-92.4900,122.0,4.7,-9999.0,99.0,'11111222,99999999,11144222' 
ADCP,ioos:station:wmo:42361:1,2011-07-01T12:30:00Z,27.5500,-92.4900,122.0,4.0,-9999.0,99.0,'11111222,99999999,11144222' 
ADCP,ioos:station:wmo:42361:1,2011-07-01T13:30:00Z,27.5500,-92.4900,122.0,3.7,-9999.0,99.0,'11111222,99999999,11144222' 
ADCP,ioos:station:wmo:42361:1,2011-07-01T14:30:00Z,27.5500,-92.4900,122.0,3.9,-9999.0,99.0,'11111222,99999999,11144222' 
ADCP,ioos:station:wmo:42361:1,2011-07-01T15:30:00Z,27.5500,-92.4900,122.0,4.2,-9999.0,99.0,'11111222,99999999,11144222' 
ADCP,ioos:station:wmo:42361:1,2011-07-01T16:30:00Z,27.5500,-92.4900,122.0,4.1,-9999.0,99.0,'11111222,99999999,11144222' 
ADCP,ioos:station:wmo:42361:1,2011-07-01T17:30:00Z,27.5500,-92.4900,122.0,4.2,-9999.0,99.0,'11111222,99999999,11144222' 
ADCP,ioos:station:wmo:42361:1,2011-07-01T18:30:00Z,27.5500,-92.4900,122.0,4.4,-9999.0,99.0,'11111222,99999999,11144222' 
ADCP,ioos:station:wmo:42361:1,2011-07-01T19:30:00Z,27.5500,-92.4900,122.0,4.1,-9999.0,99.0,'11111222,99999999,11144222' 
ADCP,ioos:station:wmo:42361:1,2011-07-01T20:30:00Z,27.5500,-92.4900,122.0,4.8,-9999.0,99.0,'11111222,99999999,11144222' 
ADCP,ioos:station:wmo:42361:1,2011-07-01T21:30:00Z,27.5500,-92.4900,122.0,4.5,-9999.0,99.0,'11111222,99999999,11144222' 
ADCP,ioos:station:wmo:42361:1,2011-07-01T22:30:00Z,27.5500,-92.4900,122.0,3.6,-9999.0,99.0,'11111222,99999999,11144222' 
ADCP,ioos:station:wmo:42361:1,2011-07-01T23:30:00Z,27.5500,-92.4900,122.0,2.5,-9999.0,99.0,'11111222,99999999,11144222' 
ADCP,ioos:station:wmo:42361:1,2011-07-02T00:30:00Z,27.5500,-92.4900,122.0,2.3,-9999.0,99.0,'11111222,99999999,11144222' 
ADCP,ioos:station:wmo:42361:1,2011-07-02T01:30:00Z,27.5500,-92.4900,122.0,2.8,-9999.0,99.0,'11111222,99999999,11144222' 
ADCP,ioos:station:wmo:42361:1,2011-07-02T02:30:00Z,27.5500,-92.4900,122.0,3.0,-9999.0,99.0,'11111222,99999999,11144222' 
ADCP,ioos:station:wmo:42361:1,2011-07-02T03:30:00Z,27.5500,-92.4900,122.0,3.2,-9999.0,99.0,'11111222,99999999,11144222' 
ADCP,ioos:station:wmo:42361:1,2011-07-02T04:30:00Z,27.5500,-92.4900,122.0,3.6,-9999.0,99.0,'11111222,99999999,11144222' 
ADCP,ioos:station:wmo:42361:1,2011-07-02T05:30:00Z,27.5500,-92.4900,122.0,3.8,-9999.0,99.0,'11111222,99999999,11144222' 
ADCP,ioos:station:wmo:42361:1,2011-07-02T06:30:00Z,27.5500,-92.4900,122.0,3.8,-9999.0,99.0,'11111222,99999999,11144222' 
ADCP,ioos:station:wmo:42361:1,2011-07-02T07:30:00Z,27.5500,-92.4900,122.0,3.9,-9999.0,99.0,'11111222,99999999,11144222' 
ADCP,ioos:station:wmo:42361:1,2011-07-02T08:30:00Z,27.5500,-92.4900,122.0,3.9,-9999.0,99.0,'11111222,99999999,11144222' 
ADCP,ioos:station:wmo:42361:1,2011-07-02T09:30:00Z,27.5500,-92.4900,122.0,2.7,-9999.0,99.0,'11111222,99999999,11144222' 
ADCP,ioos:station:wmo:42361:1,2011-07-02T10:30:00Z,27.5500,-92.4900,122.0,1.6,-9999.0,99.0,'11111222,99999999,11144222' 
ADCP,ioos:station:wmo:42361:1,2011-07-02T11:30:00Z,27.5500,-92.4900,122.0,0.2,-9999.0,99.0,'11111222,99999999,11144222' 
ADCP,ioos:station:wmo:42361:1,2011-07-02T12:30:00Z,27.5500,-92.4900,122.0,0.6,-9999.0,99.0,'11111222,99999999,11144222' 
ADCP,ioos:station:wmo:42361:1,2011-07-02T13:30:00Z,27.5500,-92.4900,122.0,2.2,-9999.0,99.0,'11111222,99999999,11144222' 
ADCP,ioos:station:wmo:42361:1,2011-07-02T14:30:00Z,27.5500,-92.4900,122.0,1.8,-9999.0,99.0,'11111222,99999999,11144222' 
ADCP,ioos:station:wmo:42361:1,2011-07-02T15:30:00Z,27.5500,-92.4900,122.0,2.8,-9999.0,99.0,'11111222,99999999,11144222' 
ADCP,ioos:station:wmo:42361:1,2011-07-02T16:30:00Z,27.5500,-92.4900,122.0,1.5,-9999.0,99.0,'11111222,99999999,11144222' 
ADCP,ioos:station:wmo:42361:1,2011-07-02T17:30:00Z,27.5500,-92.4900,122.0,1.6,-9999.0,99.0,'11111222,99999999,11144222' 
ADCP,ioos:station:wmo:42361:1,2011-07-02T18:30:00Z,27.5500,-92.4900,122.0,2.3,-9999.0,99.0,'11111222,99999999,11144222' 
ADCP,ioos:station:wmo:42361:1,2011-07-02T19:30:00Z,27.5500,-92.4900,122.0,2.3,-9999.0,99.0,'11111222,99999999,11144222' 
ADCP,ioos:station:wmo:42361:1,2011-07-02T20:30:00Z,27.5500,-92.4900,122.0,2.2,-9999.0,99.0,'11111222,99999999,11144222' 
ADCP,ioos:station:wmo:42361:1,2011-07-02T21:30:00Z,27.5500,-92.4900,122.0,0.6,-9999.0,99.0,'11111222,99999999,11144222' 
ADCP,ioos:station:wmo:42361:1,2011-07-02T22:30:00Z,27.5500,-92.4900,122.0,0.2,-9999.0,99.0,'11111222,99999999,11144222' 
ADCP,ioos:station:wmo:42361:1,2011-07-02T23:30:00Z,27.5500,-92.4900,122.0,0.7,-9999.0,99.0,'11111222,99999999,11144222' 
ADCP,ioos:station:wmo:42361:1,2011-07-03T00:30:00Z,27.5500,-92.4900,122.0,0.6,-9999.0,99.0,'11111222,99999999,11144222' 
ADCP,ioos:station:wmo:42361:1,2011-07-03T01:30:00Z,27.5500,-92.4900,122.0,0.2,-9999.0,99.0,'11111222,99999999,11144222' 
ADCP,ioos:station:wmo:42361:1,2011-07-03T02:30:00Z,27.5500,-92.4900,122.0,0.0,-9999.0,99.0,'11111222,99999999,11144222' 
ADCP,ioos:station:wmo:42361:1,2011-07-03T03:30:00Z,27.5500,-92.4900,122.0,0.2,-9999.0,99.0,'11111222,99999999,11144222' 
ADCP,ioos:station:wmo:42361:1,2011-07-03T04:30:00Z,27.5500,-92.4900,122.0,0.3,-9999.0,99.0,'11111222,99999999,11144222' 
ADCP,ioos:station:wmo:42361:1,2011-07-03T05:30:00Z,27.5500,-92.4900,122.0,0.4,-9999.0,99.0,'11111222,99999999,11144222' 
ADCP,ioos:station:wmo:42361:1,2011-07-03T06:30:00Z,27.5500,-92.4900,122.0,0.1,-9999.0,99.0,'11111222,99999999,11144222' 
ADCP,ioos:station:wmo:42361:1,2011-07-03T07:30:00Z,27.5500,-92.4900,122.0,0.3,-9999.0,99.0,'11111222,99999999,11144222' 
ADCP,ioos:station:wmo:42361:1,2011-07-03T08:30:00Z,27.5500,-92.4900,122.0,0.0,-9999.0,99.0,'11111222,99999999,11144222' 
ADCP,ioos:station:wmo:42361:1,2011-07-03T09:30:00Z,27.5500,-92.4900,122.0,0.0,-9999.0,99.0,'11111222,99999999,11144222' 
ADCP,ioos:station:wmo:42361:1,2011-07-03T10:30:00Z,27.5500,-92.4900,122.0,0.3,-9999.0,99.0,'11111222,99999999,11144222' 
ADCP,ioos:station:wmo:42361:1,2011-07-03T11:30:00Z,27.5500,-92.4900,122.0,1.3,-9999.0,99.0,'11111222,99999999,11144222' 
ADCP,ioos:station:wmo:42361:1,2011-07-03T12:30:00Z,27.5500,-92.4900,122.0,2.4,-9999.0,99.0,'11111222,99999999,11144222' 
ADCP,ioos:station:wmo:42361:1,2011-07-03T13:30:00Z,27.5500,-92.4900,122.0,2.0,-9999.0,99.0,'11111222,99999999,11144222' 
ADCP,ioos:station:wmo:42361:1,2011-07-03T14:30:00Z,27.5500,-92.4900,122.0,2.3,-9999.0,99.0,'11111222,99999999,11144222' 
ADCP,ioos:station:wmo:42361:1,2011-07-03T15:30:00Z,27.5500,-92.4900,122.0,2.5,-9999.0,99.0,'11111222,99999999,11144222' 
ADCP,ioos:station:wmo:42361:1,2011-07-03T16:30:00Z,27.5500,-92.4900,122.0,2.5,-9999.0,99.0,'11111222,99999999,11144222' 
ADCP,ioos:station:wmo:42361:1,2011-07-03T17:30:00Z,27.5500,-92.4900,122.0,2.8,-9999.0,99.0,'11111222,99999999,11144222' 
ADCP,ioos:station:wmo:42361:1,2011-07-03T18:30:00Z,27.5500,-92.4900,122.0,3.2,-9999.0,99.0,'11111222,99999999,11144222' 
ADCP,ioos:station:wmo:42361:1,2011-07-03T19:30:00Z,27.5500,-92.4900,122.0,4.2,-9999.0,99.0,'11111222,99999999,11144222' 
ADCP,ioos:station:wmo:42361:1,2011-07-03T20:30:00Z,27.5500,-92.4900,122.0,3.6,-9999.0,99.0,'11111222,99999999,11144222' 
ADCP,ioos:station:wmo:42361:1,2011-07-03T21:30:00Z,27.5500,-92.4900,122.0,3.6,-9999.0,99.0,'11111222,99999999,11144222' 
ADCP,ioos:station:wmo:42361:1,2011-07-03T22:30:00Z,27.5500,-92.4900,122.0,2.9,-9999.0,99.0,'11111222,99999999,11144222' 
ADCP,ioos:station:wmo:42361:1,2011-07-03T23:30:00Z,27.5500,-92.4900,122.0,3.1,-9999.0,99.0,'11111222,99999999,11144222' 
ADCP,ioos:station:wmo:42361:1,2011-07-04T00:30:00Z,27.5500,-92.4900,122.0,3.8,-9999.0,99.0,'11111222,99999999,11144222' 
ADCP,ioos:station:wmo:42361:1,2011-07-04T01:30:00Z,27.5500,-92.4900,122.0,3.7,-9999.0,99.0,'11111222,99999999,11144222' 
ADCP,ioos:station:wmo:42361:1,2011-07-04T02:30:00Z,27.5500,-92.4900,122.0,3.0,-9999.0,99.0,'11111222,99999999,11144222' 
ADCP,ioos:station:wmo:42361:1,2011-07-04T03:30:00Z,27.5500,-92.4900,122.0,2.9,-9999.0,99.0,'11111222,99999999,11144222' 
ADCP,ioos:station:wmo:42361:1,2011-07-04T04:30:00Z,27.5500,-92.4900,122.0,3.1,-9999.0,99.0,'11111222,99999999,11144222' 
ADCP,ioos:station:wmo:42361:1,2011-07-04T05:30:00Z,27.5500,-92.4900,122.0,3.1,-9999.0,99.0,'11111222,99999999,11144222' 
ADCP,ioos:station:wmo:42361:1,2011-07-04T06:30:00Z,27.5500,-92.4900,122.0,2.3,-9999.0,99.0,'11111222,99999999,11144222' 
ADCP,ioos:station:wmo:42361:1,2011-07-04T07:30:00Z,27.5500,-92.4900,122.0,2.4,-9999.0,99.0,'11111222,99999999,11144222' 
ADCP,ioos:station:wmo:42361:1,2011-07-04T08:30:00Z,27.5500,-92.4900,122.0,2.8,-9999.0,99.0,'11111222,99999999,11144222' 
ADCP,ioos:station:wmo:42361:1,2011-07-04T09:30:00Z,27.5500,-92.4900,122.0,3.3,-9999.0,99.0,'11111222,99999999,11144222' 
ADCP,ioos:station:wmo:42361:1,2011-07-04T10:30:00Z,27.5500,-92.4900,122.0,3.4,-9999.0,99.0,'11111222,99999999,11144222' 
ADCP,ioos:station:wmo:42361:1,2011-07-04T11:30:00Z,27.5500,-92.4900,122.0,2.5,-9999.0,99.0,'11111222,99999999,11144222' 
ADCP,ioos:station:wmo:42361:1,2011-07-04T12:30:00Z,27.5500,-92.4900,122.0,2.5,-9999.0,99.0,'11111222,99999999,11144222' 
ADCP,ioos:station:wmo:42361:1,2011-07-04T13:30:00Z,27.5500,-92.4900,122.0,2.0,-9999.0,99.0,'11111222,99999999,11144222' 
ADCP,ioos:station:wmo:42361:1,2011-07-04T14:30:00Z,27.5500,-92.4900,122.0,0.7,-9999.0,99.0,'11111222,99999999,11144222' 
ADCP,ioos:station:wmo:42361:1,2011-07-04T15:30:00Z,27.5500,-92.4900,122.0,1.9,-9999.0,99.0,'11111222,99999999,11144222' 
ADCP,ioos:station:wmo:42361:1,2011-07-04T16:30:00Z,27.5500,-92.4900,122.0,2.8,-9999.0,99.0,'11111222,99999999,11144222' 
ADCP,ioos:station:wmo:42361:1,2011-07-04T17:30:00Z,27.5500,-92.4900,122.0,3.0,-9999.0,99.0,'11111222,99999999,11144222' 
ADCP,ioos:station:wmo:42361:1,2011-07-04T18:30:00Z,27.5500,-92.4900,122.0,4.1,-9999.0,99.0,'11111222,99999999,11144222' 
ADCP,ioos:station:wmo:42361:1,2011-07-04T19:30:00Z,27.5500,-92.4900,122.0,4.1,-9999.0,99.0,'11111222,99999999,11144222' 
ADCP,ioos:station:wmo:42361:1,2011-07-04T20:30:00Z,27.5500,-92.4900,122.0,5.3,-9999.0,99.0,'11111222,99999999,11144222' 
ADCP,ioos:station:wmo:42361:1,2011-07-04T21:30:00Z,27.5500,-92.4900,122.0,5.0,-9999.0,99.0,'11111222,99999999,11144222' 
ADCP,ioos:station:wmo:42361:1,2011-07-04T22:30:00Z,27.5500,-92.4900,122.0,5.6,-9999.0,99.0,'11111222,99999999,11144222' 
ADCP,ioos:station:wmo:42361:1,2011-07-04T23:30:00Z,27.5500,-92.4900,122.0,5.0,-9999.0,99.0,'11111222,99999999,11144222' 
ADCP,ioos:station:wmo:42361:1,2011-07-05T00:30:00Z,27.5500,-92.4900,122.0,4.7,-9999.0,99.0,'11111222,99999999,11144222' 
ADCP,ioos:station:wmo:42361:1,2011-07-05T01:30:00Z,27.5500,-92.4900,122.0,6.2,-9999.0,99.0,'11111222,99999999,11144222' 
ADCP,ioos:station:wmo:42361:1,2011-07-05T02:30:00Z,27.5500,-92.4900,122.0,5.3,-9999.0,99.0,'11111222,99999999,11144222' 
ADCP,ioos:station:wmo:42361:1,2011-07-05T03:30:00Z,27.5500,-92.4900,122.0,5.8,-9999.0,99.0,'11111222,99999999,11144222' 
ADCP,ioos:station:wmo:42361:1,2011-07-05T04:30:00Z,27.5500,-92.4900,122.0,5.3,-9999.0,99.0,'11111222,99999999,11144222' 
ADCP,ioos:station:wmo:42361:1,2011-07-05T05:30:00Z,27.5500,-92.4900,122.0,5.8,-9999.0,99.0,'11111222,99999999,11144222' 
ADCP,ioos:station:wmo:42361:1,2011-07-05T06:30:00Z,27.5500,-92.4900,122.0,5.0,-9999.0,99.0,'11111222,99999999,11144222' 
ADCP,ioos:station:wmo:42361:1,2011-07-05T07:30:00Z,27.5500,-92.4900,122.0,4.0,-9999.0,99.0,'11111222,99999999,11144222' 
ADCP,ioos:station:wmo:42361:1,2011-07-05T08:30:00Z,27.5500,-92.4900,122.0,4.2,-9999.0,99.0,'11111222,99999999,11144222' 
ADCP,ioos:station:wmo:42361:1,2011-07-05T09:30:00Z,27.5500,-92.4900,122.0,3.7,-9999.0,99.0,'11111222,99999999,11144222' 
ADCP,ioos:station:wmo:42361:1,2011-07-05T10:30:00Z,27.5500,-92.4900,122.0,4.2,-9999.0,99.0,'11111222,99999999,11144222' 
ADCP,ioos:station:wmo:42361:1,2011-07-05T11:30:00Z,27.5500,-92.4900,122.0,3.7,-9999.0,99.0,'11111222,99999999,11144222' 
ADCP,ioos:station:wmo:42361:1,2011-07-05T12:30:00Z,27.5500,-92.4900,122.0,3.0,-9999.0,99.0,'11111222,99999999,11144222' 
ADCP,ioos:station:wmo:42361:1,2011-07-05T13:30:00Z,27.5500,-92.4900,122.0,2.3,-9999.0,99.0,'11111222,99999999,11144222' 
ADCP,ioos:station:wmo:42361:1,2011-07-05T14:30:00Z,27.5500,-92.4900,122.0,2.1,-9999.0,99.0,'11111222,99999999,11144222' 
ADCP,ioos:station:wmo:42361:1,2011-07-05T15:30:00Z,27.5500,-92.4900,122.0,1.9,-9999.0,99.0,'11111222,99999999,11144222' 
ADCP,ioos:station:wmo:42361:1,2011-07-05T16:30:00Z,27.5500,-92.4900,122.0,1.7,-9999.0,99.0,'11111222,99999999,11144222' 
ADCP,ioos:station:wmo:42361:1,2011-07-05T17:30:00Z,27.5500,-92.4900,122.0,1.9,-9999.0,99.0,'11111222,99999999,11144222' 
ADCP,ioos:station:wmo:42361:1,2011-07-05T18:30:00Z,27.5500,-92.4900,122.0,2.9,-9999.0,99.0,'11111222,99999999,11144222' 
ADCP,ioos:station:wmo:42361:1,2011-07-05T19:30:00Z,27.5500,-92.4900,122.0,3.5,-9999.0,99.0,'11111222,99999999,11144222' 
ADCP,ioos:station:wmo:42361:1,2011-07-05T20:30:00Z,27.5500,-92.4900,122.0,3.6,-9999.0,99.0,'11111222,99999999,11144222' 
ADCP,ioos:station:wmo:42361:1,2011-07-05T21:30:00Z,27.5500,-92.4900,122.0,3.5,-9999.0,99.0,'11111222,99999999,11144222' 
ADCP,ioos:station:wmo:42361:1,2011-07-05T22:30:00Z,27.5500,-92.4900,122.0,3.4,-9999.0,99.0,'11111222,99999999,11144222' 
ADCP,ioos:station:wmo:42361:1,2011-07-05T23:30:00Z,27.5500,-92.4900,122.0,2.8,-9999.0,99.0,'11111222,99999999,11144222' 
ADCP,ioos:station:wmo:42361:1,2011-07-06T00:30:00Z,27.5500,-92.4900,122.0,3.3,-9999.0,99.0,'11111222,99999999,11144222' 
ADCP,ioos:station:wmo:42361:1,2011-07-06T01:30:00Z,27.5500,-92.4900,122.0,2.9,-9999.0,99.0,'11111222,99999999,11144222' 
ADCP,ioos:station:wmo:42361:1,2011-07-06T02:30:00Z,27.5500,-92.4900,122.0,3.2,-9999.0,99.0,'11111222,99999999,11144222' 
ADCP,ioos:station:wmo:42361:1,2011-07-06T03:30:00Z,27.5500,-92.4900,122.0,4.6,-9999.0,99.0,'11111222,99999999,11144222' 
ADCP,ioos:station:wmo:42361:1,2011-07-06T04:30:00Z,27.5500,-92.4900,122.0,4.8,-9999.0,99.0,'11111222,99999999,11144222' 
ADCP,ioos:station:wmo:42361:1,2011-07-06T05:30:00Z,27.5500,-92.4900,122.0,4.9,-9999.0,99.0,'11111222,99999999,11144222' 
ADCP,ioos:station:wmo:42361:1,2011-07-06T06:30:00Z,27.5500,-92.4900,122.0,4.3,-9999.0,99.0,'11111222,99999999,11144222' 
ADCP,ioos:station:wmo:42361:1,2011-07-06T07:30:00Z,27.5500,-92.4900,122.0,3.4,-9999.0,99.0,'11111222,99999999,11144222' 
ADCP,ioos:station:wmo:42361:1,2011-07-06T08:30:00Z,27.5500,-92.4900,122.0,3.7,-9999.0,99.0,'11111222,99999999,11144222' 
ADCP,ioos:station:wmo:42361:1,2011-07-06T09:30:00Z,27.5500,-92.4900,122.0,2.4,-9999.0,99.0,'11111222,99999999,11144222' 
ADCP,ioos:station:wmo:42361:1,2011-07-06T10:30:00Z,27.5500,-92.4900,122.0,1.4,-9999.0,99.0,'11111222,99999999,11144222' 
ADCP,ioos:station:wmo:42361:1,2011-07-06T11:30:00Z,27.5500,-92.4900,122.0,2.0,-9999.0,99.0,'11111222,99999999,11144222' 
ADCP,ioos:station:wmo:42361:1,2011-07-06T12:30:00Z,27.5500,-92.4900,122.0,1.5,-9999.0,99.0,'11111222,99999999,11144222' 
ADCP,ioos:station:wmo:42361:1,2011-07-06T13:30:00Z,27.5500,-92.4900,122.0,1.5,-9999.0,99.0,'11111222,99999999,11144222' 
ADCP,ioos:station:wmo:42361:1,2011-07-06T14:30:00Z,27.5500,-92.4900,122.0,1.4,-9999.0,99.0,'11111222,99999999,11144222' 
ADCP,ioos:station:wmo:42361:1,2011-07-06T15:30:00Z,27.5500,-92.4900,122.0,2.1,-9999.0,99.0,'11111222,99999999,11144222' 
ADCP,ioos:station:wmo:42361:1,2011-07-06T16:30:00Z,27.5500,-92.4900,122.0,2.7,-9999.0,99.0,'11111222,99999999,11144222' 
ADCP,ioos:station:wmo:42361:1,2011-07-06T17:30:00Z,27.5500,-92.4900,122.0,3.1,-9999.0,99.0,'11111222,99999999,11144222' 
ADCP,ioos:station:wmo:42361:1,2011-07-06T18:30:00Z,27.5500,-92.4900,122.0,3.0,-9999.0,99.0,'11111222,99999999,11144222' 
ADCP,ioos:station:wmo:42361:1,2011-07-06T19:30:00Z,27.5500,-92.4900,122.0,2.2,-9999.0,99.0,'11111222,99999999,11144222' 
ADCP,ioos:station:wmo:42361:1,2011-07-06T20:30:00Z,27.5500,-92.4900,122.0,2.1,-9999.0,99.0,'11111222,99999999,11144222' 
ADCP,ioos:station:wmo:42361:1,2011-07-06T21:30:00Z,27.5500,-92.4900,122.0,2.4,-9999.0,99.0,'11111222,99999999,11144222' 
ADCP,ioos:station:wmo:42361:1,2011-07-06T22:30:00Z,27.5500,-92.4900,122.0,2.9,-9999.0,99.0,'11111222,99999999,11144222' 
ADCP,ioos:station:wmo:42361:1,2011-07-06T23:30:00Z,27.5500,-92.4900,122.0,2.6,-9999.0,99.0,'11111222,99999999,11144222' 
ADCP,ioos:station:wmo:42361:1,2011-07-07T00:30:00Z,27.5500,-92.4900,122.0,2.7,-9999.0,99.0,'11111222,99999999,11144222' 
ADCP,ioos:station:wmo:42361:1,2011-07-07T01:30:00Z,27.5500,-92.4900,122.0,3.3,-9999.0,99.0,'11111222,99999999,11144222' 
ADCP,ioos:station:wmo:42361:1,2011-07-07T02:30:00Z,27.5500,-92.4900,122.0,3.5,-9999.0,99.0,'11111222,99999999,11144222' 
ADCP,ioos:station:wmo:42361:1,2011-07-07T03:30:00Z,27.5500,-92.4900,122.0,4.6,-9999.0,99.0,'11111222,99999999,11144222' 
ADCP,ioos:station:wmo:42361:1,2011-07-07T04:30:00Z,27.5500,-92.4900,122.0,5.0,-9999.0,99.0,'11111222,99999999,11144222' 
ADCP,ioos:station:wmo:42361:1,2011-07-07T05:30:00Z,27.5500,-92.4900,122.0,5.2,-9999.0,99.0,'11111222,99999999,11144222' 
ADCP,ioos:station:wmo:42361:1,2011-07-07T06:30:00Z,27.5500,-92.4900,122.0,5.7,-9999.0,99.0,'11111222,99999999,11144222' 
ADCP,ioos:station:wmo:42361:1,2011-07-07T07:30:00Z,27.5500,-92.4900,122.0,5.7,-9999.0,99.0,'11111222,99999999,11144222' 
ADCP,ioos:station:wmo:42361:1,2011-07-07T08:30:00Z,27.5500,-92.4900,122.0,4.7,-9999.0,99.0,'11111222,99999999,11144222' 
ADCP,ioos:station:wmo:42361:1,2011-07-07T09:30:00Z,27.5500,-92.4900,122.0,4.1,-9999.0,99.0,'11111222,99999999,11144222' 
ADCP,ioos:station:wmo:42361:1,2011-07-07T10:30:00Z,27.5500,-92.4900,122.0,3.3,-9999.0,99.0,'11111222,99999999,11144222' 
ADCP,ioos:station:wmo:42361:1,2011-07-07T11:30:00Z,27.5500,-92.4900,122.0,3.1,-9999.0,99.0,'11111222,99999999,11144222' 
ADCP,ioos:station:wmo:42361:1,2011-07-07T12:30:00Z,27.5500,-92.4900,122.0,2.0,-9999.0,99.0,'11111222,99999999,11144222' 
ADCP,ioos:station:wmo:42361:1,2011-07-07T13:30:00Z,27.5500,-92.4900,122.0,1.1,-9999.0,99.0,'11111222,99999999,11144222' 
ADCP,ioos:station:wmo:42361:1,2011-07-07T14:30:00Z,27.5500,-92.4900,122.0,0.0,-9999.0,99.0,'11111222,99999999,11144222' 
ADCP,ioos:station:wmo:42361:1,2011-07-07T15:30:00Z,27.5500,-92.4900,122.0,0.0,-9999.0,99.0,'11111222,99999999,11144222' 
ADCP,ioos:station:wmo:42361:1,2011-07-07T16:30:00Z,27.5500,-92.4900,122.0,0.0,-9999.0,99.0,'11111222,99999999,11144222' 
ADCP,ioos:station:wmo:42361:1,2011-07-07T17:30:00Z,27.5500,-92.4900,122.0,0.2,-9999.0,99.0,'11111222,99999999,11144222' 
ADCP,ioos:station:wmo:42361:1,2011-07-07T18:30:00Z,27.5500,-92.4900,122.0,1.9,-9999.0,99.0,'11111222,99999999,11144222' 
ADCP,ioos:station:wmo:42361:1,2011-07-07T20:30:00Z,27.5500,-92.4900,122.0,2.2,-9999.0,99.0,'11111222,99999999,11144222' 
ADCP,ioos:station:wmo:42361:1,2011-07-07T21:30:00Z,27.5500,-92.4900,122.0,2.2,-9999.0,99.0,'11111222,99999999,11144222' 
ADCP,ioos:station:wmo:42361:1,2011-07-07T22:30:00Z,27.5500,-92.4900,122.0,3.4,-9999.0,99.0,'11111222,99999999,11144222' 
ADCP,ioos:station:wmo:42361:1,2011-07-07T23:30:00Z,27.5500,-92.4900,122.0,3.5,-9999.0,99.0,'11111222,99999999,11144222' 
ADCP,ioos:station:wmo:42361:1,2011-07-08T00:30:00Z,27.5500,-92.4900,122.0,2.9,-9999.0,99.0,'11111222,99999999,11144222' 
ADCP,ioos:station:wmo:42361:1,2011-07-08T01:30:00Z,27.5500,-92.4900,122.0,3.6,-9999.0,99.0,'11111222,99999999,11144222' 
ADCP,ioos:station:wmo:42361:1,2011-07-08T02:30:00Z,27.5500,-92.4900,122.0,4.4,-9999.0,99.0,'11111222,99999999,11144222' 
ADCP,ioos:station:wmo:42361:1,2011-07-08T03:30:00Z,27.5500,-92.4900,122.0,3.8,-9999.0,99.0,'11111222,99999999,11144222' 
ADCP,ioos:station:wmo:42361:1,2011-07-08T04:30:00Z,27.5500,-92.4900,122.0,3.8,-9999.0,99.0,'11111222,99999999,11144222' 
ADCP,ioos:station:wmo:42361:1,2011-07-08T05:30:00Z,27.5500,-92.4900,122.0,3.9,-9999.0,99.0,'11111222,99999999,11144222' 
ADCP,ioos:station:wmo:42361:1,2011-07-08T06:30:00Z,27.5500,-92.4900,122.0,3.9,-9999.0,99.0,'11111222,99999999,11144222' 
ADCP,ioos:station:wmo:42361:1,2011-07-08T07:30:00Z,27.5500,-92.4900,122.0,4.0,-9999.0,99.0,'11111222,99999999,11144222' 
ADCP,ioos:station:wmo:42361:1,2011-07-08T08:30:00Z,27.5500,-92.4900,122.0,4.1,-9999.0,99.0,'11111222,99999999,11144222' 
ADCP,ioos:station:wmo:42361:1,2011-07-08T09:30:00Z,27.5500,-92.4900,122.0,4.6,-9999.0,99.0,'11111222,99999999,11144222' 
ADCP,ioos:station:wmo:42361:1,2011-07-08T10:30:00Z,27.5500,-92.4900,122.0,4.1,-9999.0,99.0,'11111222,99999999,11144222' 
ADCP,ioos:station:wmo:42361:1,2011-07-08T11:30:00Z,27.5500,-92.4900,122.0,4.2,-9999.0,99.0,'11111222,99999999,11144222' 
ADCP,ioos:station:wmo:42361:1,2011-07-08T12:30:00Z,27.5500,-92.4900,122.0,4.6,-9999.0,99.0,'11111222,99999999,11144222' 
ADCP,ioos:station:wmo:42361:1,2011-07-08T13:30:00Z,27.5500,-92.4900,122.0,4.1,-9999.0,99.0,'11111222,99999999,11144222' 
ADCP,ioos:station:wmo:42361:1,2011-07-08T14:30:00Z,27.5500,-92.4900,122.0,3.0,-9999.0,99.0,'11111222,99999999,11144222' 
ADCP,ioos:station:wmo:42361:1,2011-07-08T15:30:00Z,27.5500,-92.4900,122.0,2.5,-9999.0,99.0,'11111222,99999999,11144222' 
ADCP,ioos:station:wmo:42361:1,2011-07-08T16:30:00Z,27.5500,-92.4900,122.0,2.0,-9999.0,99.0,'11111222,99999999,11144222' 
ADCP,ioos:station:wmo:42361:1,2011-07-08T17:30:00Z,27.5500,-92.4900,122.0,1.7,-9999.0,99.0,'11111222,99999999,11144222' 
ADCP,ioos:station:wmo:42361:1,2011-07-08T18:30:00Z,27.5500,-92.4900,122.0,1.8,-9999.0,99.0,'11111222,99999999,11144222' 
ADCP,ioos:station:wmo:42361:1,2011-07-08T19:30:00Z,27.5500,-92.4900,122.0,2.0,-9999.0,99.0,'11111222,99999999,11144222' 
ADCP,ioos:station:wmo:42361:1,2011-07-08T20:30:00Z,27.5500,-92.4900,122.0,1.9,-9999.0,99.0,'11111222,99999999,11144222' 
ADCP,ioos:station:wmo:42361:1,2011-07-08T21:30:00Z,27.5500,-92.4900,122.0,1.9,-9999.0,99.0,'11111222,99999999,11144222' 
ADCP,ioos:station:wmo:42361:1,2011-07-08T22:30:00Z,27.5500,-92.4900,122.0,1.2,-9999.0,99.0,'11111222,99999999,11144222' 
ADCP,ioos:station:wmo:42361:1,2011-07-08T23:30:00Z,27.5500,-92.4900,122.0,0.7,-9999.0,99.0,'11111222,99999999,11144222' 
ADCP,ioos:station:wmo:42361:1,2011-07-09T00:30:00Z,27.5500,-92.4900,122.0,1.6,-9999.0,99.0,'11111222,99999999,11144222' 
ADCP,ioos:station:wmo:42361:1,2011-07-09T01:30:00Z,27.5500,-92.4900,122.0,1.9,-9999.0,99.0,'11111222,99999999,11144222' 
ADCP,ioos:station:wmo:42361:1,2011-07-09T02:30:00Z,27.5500,-92.4900,122.0,2.7,-9999.0,99.0,'11111222,99999999,11144222' 
ADCP,ioos:station:wmo:42361:1,2011-07-09T03:30:00Z,27.5500,-92.4900,122.0,3.6,-9999.0,99.0,'11111222,99999999,11144222' 
ADCP,ioos:station:wmo:42361:1,2011-07-09T04:30:00Z,27.5500,-92.4900,122.0,5.0,-9999.0,99.0,'11111222,99999999,11144222' 
ADCP,ioos:station:wmo:42361:1,2011-07-09T05:30:00Z,27.5500,-92.4900,122.0,5.4,-9999.0,99.0,'11111222,99999999,11144222' 